Flag Weather past 2 weeks in St. Peter Port, Guernsey, United Kingdom

Now
50 °F

Light rain. Broken clouds.


Feels Like: 45 °F
Forecast: 50 / 57 °F
Wind: 13 mph from Southeast

Location: Guernsey Airport

Current Time: Nov 21, 2014 at 8:48:58 AM

Latest Report: Nov 21, 2014 at 8:20 AM


Visibility: 5 mi

Pressure: 30.01 "Hg

Humidity: 100%

Dew point: 50 °F

Location of St. Peter PortLocation

Historic Weather in St. Peter Port — Graph

°F

St. Peter Port temperature yesterday

Maximum temperature yesterday: 52 °F (at 3:50 AM)
Minimum temperature yesterday: 48 °F (at 7:50 AM)
Average temperature yesterday: 51 °F

Past Weeks' High & Low Weather Summary

 TemperatureHumidityPressure
High57 °F (Nov 8, 10:20 AM)100% (Nov 7, 4:20 AM)30.18 "Hg (Nov 7, 4:20 AM)
Low48 °F (Nov 9, 3:50 AM)67% (Nov 6, 7:50 AM)29.24 "Hg (Nov 11, 3:50 PM)
Average52 °F89%29.60 "Hg
* Reported Nov 6 7:20 AM — Nov 21 7:20 AM, St. Peter Port, Weather by CustomWeather, © 2014

Note: Actual official high and low records may vary slightly from our data, if they occured in-between our weather recording intervals... More about our weather records

Advertising

St. Peter Port weather history for previous 24 hours

 ConditionsComfort  
Time TempWeatherWind HumidityBarometerVisibility
7:20 AM
Nov 21
50 °FLight rain. Partly cloudy.13 mph100%30.01 "Hg6 mi
6:50 AM50 °FLight rain. Passing clouds.13 mph94%30.01 "HgN/A
6:20 AM50 °FPassing clouds.13 mph94%30.01 "HgN/A
5:50 AM50 °FPassing clouds.13 mph94%30.01 "HgN/A
5:20 AM50 °FPartly cloudy.13 mph94%30.01 "HgN/A
4:50 AM50 °FPassing clouds.10 mph94%30.01 "HgN/A
4:20 AM50 °FPartly cloudy.9 mph94%30.04 "HgN/A
3:50 AM50 °FPartly cloudy.12 mph94%30.04 "HgN/A
8:50 PM
Nov 20
50 °FPassing clouds.15 mph94%30.12 "HgN/A
8:20 PM52 °FPassing clouds.15 mph88%30.12 "HgN/A
7:20 PM50 °FPassing clouds.13 mph94%30.12 "HgN/A
6:50 PM50 °FPassing clouds.12 mph94%30.12 "HgN/A
6:20 PM50 °FPassing clouds.10 mph94%30.12 "HgN/A
5:50 PM50 °FPassing clouds.10 mph94%30.12 "HgN/A
5:20 PM50 °FPassing clouds.10 mph94%30.12 "HgN/A
4:50 PM50 °FPassing clouds.12 mph94%30.12 "HgN/A
4:20 PM50 °FPassing clouds.9 mph94%30.12 "HgN/A
3:50 PM52 °FPassing clouds.10 mph94%30.12 "HgN/A
3:20 PM52 °FPassing clouds.8 mph88%30.12 "HgN/A
2:50 PM52 °FPassing clouds.9 mph94%30.12 "HgN/A
2:20 PM52 °FPassing clouds.10 mph94%30.12 "HgN/A
1:50 PM52 °FPassing clouds.12 mph94%30.12 "HgN/A
1:20 PM52 °FPassing clouds.10 mph94%30.15 "HgN/A
12:50 PM52 °FPassing clouds.12 mph94%30.15 "HgN/A
12:20 PM52 °FPassing clouds.13 mph94%30.15 "HgN/A
11:50 AM52 °FPassing clouds.13 mph94%30.18 "HgN/A
11:20 AM52 °FPassing clouds.16 mph94%30.18 "HgN/A
10:50 AM50 °FPassing clouds.14 mph100%30.18 "HgN/A
10:20 AM50 °FScattered clouds.14 mph100%30.18 "HgN/A
9:50 AM50 °FScattered clouds.12 mph100%30.18 "HgN/A
9:20 AM50 °FPassing clouds.8 mph100%30.18 "HgN/A
8:20 AM48 °FBroken clouds.9 mph100%30.15 "Hg4 mi
Weather by CustomWeather, © 2014

See weather overviewHow to use our weather pages